Regional Weather Roundup
Issued by NWS State College, PA

Home | Current Version | Previous Version | Text Only | Print | Product List | Glossary Off
Versions: 1 2 3 4 5 6 7 8 9 10 11 12 13 14 15 16 17 18 19 20 21 22 23 24 25 26 27 28 29 30 31 32 33 34 35 36 37 38 39 40 41 42 43 44 45 46 47 48 49 50

000
ASUS41 KCTP 021703
RWRCTP

REGIONAL WEATHER ROUNDUP
NATIONAL WEATHER SERVICE STATE COLLEGE PA
1200 PM EST FRI DEC 02 2016

Note: "fair" indicates few or no clouds below 12,000 feet with no
significant weather and/or obstructions to visibility.

* = STATION THAT DOES NOT REPORT PRECIPITATION /E.G. RAIN...SNOW...ETC/
    THUNDER OR FOG.

PAZ002>004-007>009-013>016-020>023-029>032-021800-
WESTERN PENNSYLVANIA

CITY           SKY/WX    TMP DP  RH WIND       PRES   REMARKS
ERIE           CLOUDY    38  34  85 SW12G24   29.98S
MEADVILLE      CLOUDY    36  30  79 W16G24    29.98F
FRANKLIN*        N/A     36  27  69 W15       30.00S
NEW CASTLE     CLOUDY    38  30  73 SW10      30.04F
BEAVER COUNTY  CLOUDY    37  28  70 W14       30.04F
BUTLER*        CLOUDY    37  27  65 W13G21    30.05F
PITTSBURGH INT CLOUDY    39  31  72 SW15G24   30.04F
PITTSBURGH     CLOUDY    36  30  79 SW14      30.05F
INDIANA*       CLOUDY    37  28  70 W17       30.04F
LATROBE        CLOUDY    36  30  80 W17G29    30.07F
WASHINGTON CO* CLOUDY    36  28  75 W12G20    30.08F
$$

PAZ004>006-010>012-017>019-024>028-033>037-041-042-045-046-049>053-021800-
CENTRAL PENNSYLVANIA

CITY           SKY/WX    TMP DP  RH WIND       PRES   REMARKS
BRADFORD       LGT SNOW  34  32  92 W10G18    29.89F FOG
DUBOIS         CLOUDY    36  28  73 W21       29.95F
CLEARFIELD     CLOUDY    38  30  73 W15G22    29.96S
JOHNSTOWN      CLOUDY    32  26  78 W16       29.98F
ALTOONA        CLOUDY    38  27  64 W13       30.01F
STATE COLLEGE  CLOUDY    41  28  60 W18G29    29.96F
WILLIAMSPORT   CLOUDY    45  30  55 W20       29.93F
SELINSGROVE    PTSUNNY   47  31  53 W8G20     29.97F
FT INDIANTOWN  NOT AVBL
CAPITAL CITY   NOT AVBL
HARRISBURG     NOT AVBL
YORK           PTSUNNY   46  29  51 NW17      30.01F
$$

PAZ038>040-043-044-047-048-054-055-060>062-067>071-021800-
EASTERN PENNSYLVANIA

CITY           SKY/WX    TMP DP  RH WIND       PRES   REMARKS
SCRANTON       CLOUDY    44  32  62 SW15G22   29.88F
MOUNT POCONO   CLOUDY    38  28  67 W13G26    29.85F
ALLENTOWN      PTSUNNY   49  30  48 W13       29.93F
QUAKERTOWN*    SUNNY     46  30  53 NW10G20   29.94F
READING        MOSUNNY   49  29  46 W21G31    29.94F
LANCASTER      MOSUNNY   48  31  51 W22G33    29.97F
COATESVILLE    SUNNY     46  30  53 W16G22    29.98F
POTTSTOWN      SUNNY     48  29  47 W12G23    29.96F
BLUE BELL      MOSUNNY   45  32  61 W7        29.95F
DOYLESTOWN     SUNNY     50  31  48 W15G23    29.92F
WILLOW GROVE   NOT AVBL
NORTH PHILA    SUNNY     50  31  48 W15G21    29.96F
PHILADELPHIA   PTSUNNY   50  28  42 W14G25    29.97F
$$




USA.gov is the U.S. government's official web portal to all federal, state and local government web resources and services.